WMT4493 LEBL-LIPZ

Flight info

Callsign WMT4493
Flight time N/A
Altitude 34000
Route AGENA M985 LUMAS DCT NIBIK DCT STP DCT RAPED DCT PIGOS DCT EKSID DCT NOSTA DCT NOPMU DCT LURUT DCT TODNO DCT BOA DCT SUKOM Q125 NIMUM Z43 OTGIG
Aircraft A21N/M-SDE2E3FGHIRWXY/LB1

Departure

Time 2026-05-05 23:14
Airport Josep Tarradellas Barcelona-El Prat Airport (LEBL)

Arrival

Time N/A
Airport Venice Marco Polo Airport (LIPZ)
Time Latitude Longitude Altitude Speed Heading
2026-05-05 22:55 41.30191 2.07802 8 ft 0 kts 302°
2026-05-05 23:06 41.30181 2.07824 8 ft 3 kts 302°
2026-05-05 23:06 41.30170 2.07846 8 ft 2 kts 302°
2026-05-05 23:07 41.30162 2.07866 8 ft 3 kts 295°
2026-05-05 23:07 41.30153 2.07889 8 ft 3 kts 308°
2026-05-05 23:07 41.30141 2.07902 8 ft 4 kts 333°
2026-05-05 23:07 41.30127 2.07915 8 ft 4 kts 294°
2026-05-05 23:08 41.30126 2.07936 8 ft 4 kts 249°
2026-05-05 23:08 41.30133 2.07960 8 ft 4 kts 245°
2026-05-05 23:08 41.30138 2.07973 8 ft 1 kts 245°
2026-05-05 23:10 41.30130 2.07963 8 ft 3 kts 218°
2026-05-05 23:10 41.30099 2.07960 8 ft 6 kts 169°
2026-05-05 23:10 41.30047 2.07988 8 ft 9 kts 163°
2026-05-05 23:11 41.29990 2.07946 8 ft 11 kts 239°
2026-05-05 23:11 41.29956 2.07847 8 ft 13 kts 244°
2026-05-05 23:11 41.29911 2.07720 8 ft 17 kts 245°
2026-05-05 23:11 41.29857 2.07563 8 ft 20 kts 245°
2026-05-05 23:12 41.29793 2.07380 8 ft 24 kts 245°
2026-05-05 23:12 41.29722 2.07170 8 ft 25 kts 246°
2026-05-05 23:12 41.29638 2.07065 8 ft 7 kts 157°
2026-05-05 23:12 41.29591 2.07094 8 ft 8 kts 155°
2026-05-05 23:13 41.29535 2.07129 8 ft 10 kts 155°
2026-05-05 23:13 41.29485 2.07192 9 ft 11 kts 88°
2026-05-05 23:13 41.29495 2.07235 11 ft 0 kts 66°
2026-05-05 23:13 41.29502 2.07256 10 ft 20 kts 66°
2026-05-05 23:14 41.29691 2.07803 9 ft 109 kts 65°
2026-05-05 23:14 41.30121 2.09080 104 ft 184 kts 63°
2026-05-05 23:14 41.30675 2.10744 960 ft 211 kts 64°
2026-05-05 23:14 41.31309 2.12667 1728 ft 239 kts 63°
2026-05-05 23:15 41.32034 2.14762 2184 ft 258 kts 63°
2026-05-05 23:15 41.32806 2.16977 2854 ft 269 kts 62°
2026-05-05 23:15 41.33406 2.19373 3665 ft 278 kts 79°
2026-05-05 23:15 41.33616 2.21947 4613 ft 281 kts 83°
2026-05-05 23:16 41.33790 2.24546 5506 ft 283 kts 84°
2026-05-05 23:16 41.33975 2.27161 6348 ft 285 kts 84°
2026-05-05 23:16 41.34172 2.29802 7097 ft 289 kts 84°
2026-05-05 23:16 41.34381 2.32485 7811 ft 294 kts 84°
2026-05-05 23:17 41.34599 2.35206 8517 ft 298 kts 84°
2026-05-05 23:17 41.34823 2.37980 9229 ft 303 kts 84°
2026-05-05 23:17 41.35050 2.40788 9942 ft 307 kts 84°
2026-05-05 23:17 41.35282 2.43671 10383 ft 321 kts 84°
2026-05-05 23:18 41.35526 2.46707 10680 ft 339 kts 84°
2026-05-05 23:18 41.35779 2.49864 10942 ft 357 kts 84°
2026-05-05 23:18 41.36049 2.53230 11202 ft 374 kts 84°
2026-05-05 23:18 41.36330 2.56759 11456 ft 391 kts 84°
2026-05-05 23:19 41.36648 2.60428 11698 ft 407 kts 82°
2026-05-05 23:19 41.37317 2.64151 11949 ft 420 kts 74°
2026-05-05 23:19 41.38164 2.67902 12382 ft 425 kts 73°
2026-05-05 23:19 41.39023 2.71689 12833 ft 430 kts 73°
2026-05-05 23:20 41.39887 2.75521 13311 ft 433 kts 73°
2026-05-05 23:20 41.40753 2.79387 13812 ft 437 kts 74°
2026-05-05 23:20 41.41623 2.83286 14213 ft 441 kts 74°
2026-05-05 23:20 41.42498 2.87219 14612 ft 444 kts 74°
2026-05-05 23:21 41.43377 2.91187 15050 ft 449 kts 74°
2026-05-05 23:21 41.44265 2.95195 15552 ft 453 kts 75°
2026-05-05 23:21 41.45160 2.99240 16029 ft 458 kts 75°
2026-05-05 23:21 41.46065 3.03334 16501 ft 462 kts 75°
2026-05-05 23:22 41.46974 3.07471 16912 ft 468 kts 75°
2026-05-05 23:22 41.47893 3.11666 17302 ft 474 kts 75°
2026-05-05 23:22 41.48821 3.15907 17738 ft 479 kts 75°
2026-05-05 23:22 41.49687 3.20218 18172 ft 483 kts 79°
2026-05-05 23:23 41.50424 3.24614 18535 ft 487 kts 79°
2026-05-05 23:23 41.51162 3.29047 18885 ft 492 kts 79°
2026-05-05 23:23 41.51908 3.33525 19345 ft 494 kts 79°
2026-05-05 23:23 41.52646 3.37946 19777 ft 496 kts 80°
2026-05-05 23:24 41.53396 3.42455 20132 ft 500 kts 80°
2026-05-05 23:24 41.54153 3.47008 20456 ft 504 kts 80°
2026-05-05 23:24 41.54914 3.51597 20769 ft 508 kts 80°
2026-05-05 23:24 41.55673 3.56233 21105 ft 513 kts 80°
2026-05-05 23:25 41.56440 3.60899 21470 ft 518 kts 80°
2026-05-05 23:25 41.57216 3.65623 21831 ft 522 kts 80°
2026-05-05 23:25 41.57993 3.70392 22154 ft 527 kts 80°
2026-05-05 23:25 41.58771 3.75201 22477 ft 531 kts 81°
2026-05-05 23:26 41.59558 3.80048 22807 ft 536 kts 81°
2026-05-05 23:26 41.60347 3.84919 23152 ft 538 kts 81°
2026-05-05 23:26 41.61143 3.89828 23496 ft 542 kts 81°
2026-05-05 23:26 41.61941 3.94762 23790 ft 545 kts 81°
2026-05-05 23:27 41.62739 3.99716 24108 ft 547 kts 81°
2026-05-05 23:27 41.63541 4.04689 24493 ft 546 kts 81°
2026-05-05 23:27 41.64344 4.09657 24912 ft 545 kts 81°
2026-05-05 23:27 41.65130 4.14610 25333 ft 544 kts 81°
2026-05-05 23:28 41.65909 4.19557 25720 ft 543 kts 81°
2026-05-05 23:28 41.66686 4.24479 26212 ft 540 kts 81°
2026-05-05 23:28 41.67460 4.29376 26680 ft 537 kts 81°
2026-05-05 23:28 41.68234 4.34259 27099 ft 536 kts 81°
2026-05-05 23:29 41.68991 4.39066 27500 ft 535 kts 81°
2026-05-05 23:29 41.69758 4.43931 27918 ft 534 kts 81°
2026-05-05 23:29 41.70521 4.48801 28305 ft 534 kts 81°
2026-05-05 23:29 41.71284 4.53658 28701 ft 533 kts 81°
2026-05-05 23:30 41.72208 4.58465 29043 ft 534 kts 73°
2026-05-05 23:30 41.73166 4.61573 29354 ft 534 kts 65°
2026-05-05 23:30 41.75869 4.67031 29906 ft 531 kts 47°
2026-05-05 23:30 41.77589 4.69352 30114 ft 528 kts 39°
2026-05-05 23:31 41.80542 4.72223 30369 ft 523 kts 27°
2026-05-05 23:31 41.83703 4.74614 30627 ft 521 kts 25°
2026-05-05 23:31 41.86890 4.76955 30893 ft 521 kts 25°
2026-05-05 23:31 41.90071 4.79303 31184 ft 521 kts 25°
2026-05-05 23:32 41.93232 4.81667 31450 ft 521 kts 25°
2026-05-05 23:32 41.96394 4.84063 31704 ft 521 kts 25°
2026-05-05 23:32 41.99544 4.86463 31960 ft 520 kts 25°
2026-05-05 23:32 42.02701 4.88853 32202 ft 520 kts 25°
2026-05-05 23:33 42.05857 4.91224 32446 ft 519 kts 25°
2026-05-05 23:33 42.09008 4.93609 32682 ft 519 kts 25°
2026-05-05 23:33 42.12142 4.96009 32903 ft 519 kts 26°
2026-05-05 23:33 42.15289 4.98409 33102 ft 519 kts 26°
2026-05-05 23:34 42.18447 5.00793 33307 ft 519 kts 25°
2026-05-05 23:34 42.21597 5.03175 33510 ft 519 kts 26°
2026-05-05 23:34 42.24742 5.05569 33708 ft 519 kts 26°
2026-05-05 23:34 42.27878 5.07966 33890 ft 519 kts 26°
2026-05-05 23:35 42.34112 5.12736 33921 ft 517 kts 26°
2026-05-05 23:35 42.40370 5.17535 33892 ft 517 kts 26°
2026-05-05 23:36 42.46628 5.22347 33884 ft 517 kts 26°
2026-05-05 23:36 42.52903 5.27185 33894 ft 520 kts 26°
2026-05-05 23:37 42.59199 5.32053 33880 ft 520 kts 26°
2026-05-05 23:37 42.65410 5.37051 33849 ft 518 kts 33°
2026-05-05 23:38 42.68118 5.40199 33864 ft 521 kts 45°
2026-05-05 23:38 42.70402 5.44094 33868 ft 521 kts 57°
2026-05-05 23:38 42.74157 5.52423 33870 ft 520 kts 60°
2026-05-05 23:39 42.77915 5.60857 33871 ft 520 kts 59°
2026-05-05 23:39 42.81692 5.69259 33879 ft 520 kts 59°
2026-05-05 23:40 42.85485 5.77699 33866 ft 523 kts 59°
2026-05-05 23:40 42.89272 5.86155 33872 ft 520 kts 60°
2026-05-05 23:41 42.93035 5.94583 33888 ft 520 kts 60°
2026-05-05 23:41 42.96789 6.03019 33870 ft 520 kts 60°
2026-05-05 23:42 43.00525 6.11432 33863 ft 522 kts 59°
2026-05-05 23:42 43.04291 6.19955 33871 ft 524 kts 60°
2026-05-05 23:43 43.08051 6.28473 33892 ft 522 kts 60°
2026-05-05 23:43 43.11800 6.36988 33872 ft 522 kts 60°
2026-05-05 23:44 43.15541 6.45511 33865 ft 522 kts 60°
2026-05-05 23:44 43.19277 6.54053 33865 ft 522 kts 60°
2026-05-05 23:45 43.23164 6.62476 33888 ft 524 kts 54°
2026-05-05 23:45 43.27440 6.70557 33881 ft 524 kts 54°
2026-05-05 23:46 43.31724 6.78660 33878 ft 524 kts 55°
2026-05-05 23:46 43.35985 6.86767 33867 ft 523 kts 55°
2026-05-05 23:47 43.40247 6.94884 33899 ft 524 kts 55°
2026-05-05 23:47 43.44507 7.03015 33928 ft 524 kts 56°
2026-05-05 23:48 43.48763 7.11166 33906 ft 524 kts 56°
2026-05-05 23:48 43.53019 7.19336 33904 ft 525 kts 56°
2026-05-05 23:49 43.57263 7.27515 33903 ft 524 kts 56°
2026-05-05 23:49 43.61482 7.35660 33934 ft 527 kts 56°
2026-05-05 23:50 43.65745 7.43924 33911 ft 529 kts 56°
2026-05-05 23:50 43.70008 7.52210 33906 ft 529 kts 56°
2026-05-05 23:51 43.74264 7.60496 33875 ft 527 kts 56°
2026-05-05 23:51 43.78481 7.68732 33913 ft 525 kts 57°
2026-05-05 23:52 43.83060 7.76622 33912 ft 528 kts 42°
2026-05-05 23:52 43.88802 7.82955 33922 ft 527 kts 36°
2026-05-05 23:53 43.94069 7.89984 33902 ft 526 kts 56°
2026-05-05 23:53 43.95897 7.94348 33932 ft 523 kts 70°
2026-05-05 23:53 43.97097 7.99083 33891 ft 519 kts 79°
2026-05-05 23:54 43.98941 8.08709 33881 ft 515 kts 80°
2026-05-05 23:54 44.00816 8.18306 33906 ft 515 kts 79°
2026-05-05 23:55 44.02711 8.27889 33919 ft 515 kts 79°
2026-05-05 23:55 44.04600 8.37496 33894 ft 515 kts 79°
2026-05-05 23:56 44.06468 8.47113 33910 ft 515 kts 79°
2026-05-05 23:56 44.08344 8.56737 33914 ft 516 kts 79°
2026-05-05 23:57 44.10218 8.66366 33932 ft 515 kts 80°
2026-05-05 23:57 44.12073 8.76004 33889 ft 517 kts 80°
2026-05-05 23:58 44.13928 8.85676 33915 ft 517 kts 80°
2026-05-05 23:58 44.15778 8.95367 33925 ft 517 kts 80°
2026-05-05 23:59 44.17614 9.05053 33923 ft 517 kts 80°
2026-05-05 23:59 44.19447 9.14746 33920 ft 518 kts 80°
2026-05-06 00:00 44.21268 9.24454 33927 ft 518 kts 80°
2026-05-06 00:00 44.23080 9.34168 33930 ft 518 kts 80°
2026-05-06 00:01 44.24896 9.43916 33944 ft 520 kts 80°
2026-05-06 00:01 44.26708 9.53695 33922 ft 520 kts 80°
2026-05-06 00:02 44.28506 9.63485 33934 ft 520 kts 80°
2026-05-06 00:02 44.30300 9.73273 33932 ft 521 kts 80°
2026-05-06 00:03 44.32083 9.83068 33932 ft 521 kts 80°
2026-05-06 00:03 44.33861 9.92888 33938 ft 522 kts 80°
2026-05-06 00:04 44.35624 10.02678 33968 ft 522 kts 80°
2026-05-06 00:04 44.37392 10.12533 33944 ft 523 kts 80°
2026-05-06 00:05 44.40021 10.27355 33961 ft 525 kts 80°
2026-05-06 00:06 44.41768 10.37255 33994 ft 525 kts 80°
2026-05-06 00:06 44.43480 10.47189 34016 ft 525 kts 80°
2026-05-06 00:07 44.45213 10.57109 34008 ft 525 kts 80°
2026-05-06 00:07 44.46939 10.67050 34015 ft 525 kts 80°
2026-05-06 00:08 44.48658 10.76993 34048 ft 525 kts 80°
2026-05-06 00:08 44.50391 10.86986 34019 ft 529 kts 80°
2026-05-06 00:09 44.52095 10.96953 34017 ft 528 kts 83°
2026-05-06 00:09 44.52788 11.07095 34015 ft 521 kts 92°
2026-05-06 00:10 44.53203 11.17236 34006 ft 521 kts 92°
2026-05-06 00:10 44.53625 11.27385 33968 ft 521 kts 92°
2026-05-06 00:11 44.54049 11.37528 33950 ft 521 kts 91°
2026-05-06 00:11 44.54471 11.47686 33968 ft 521 kts 92°
2026-05-06 00:12 44.54959 11.57835 33977 ft 525 kts 86°
2026-05-06 00:12 44.55861 11.62823 33975 ft 532 kts 71°
2026-05-06 00:12 44.56907 11.65943 33974 ft 535 kts 60°
2026-05-06 00:12 44.59118 11.70111 33970 ft 533 kts 44°
2026-05-06 00:13 44.61923 11.73452 33984 ft 527 kts 31°
2026-05-06 00:13 44.68035 11.79102 33984 ft 526 kts 29°
2026-05-06 00:14 44.74098 11.84778 33972 ft 521 kts 30°
2026-05-06 00:14 44.80114 11.90495 33973 ft 521 kts 30°
2026-05-06 00:15 44.86124 11.96215 33965 ft 522 kts 30°
2026-05-06 00:15 44.92136 12.02000 33961 ft 524 kts 32°
2026-05-06 00:16 44.97599 12.08763 33961 ft 525 kts 39°
2026-05-06 00:16 45.00445 12.11971 33946 ft 519 kts 27°
2026-05-06 00:16 45.03663 12.14113 33946 ft 506 kts 11°
2026-05-06 00:16 45.07061 12.15010 33953 ft 490 kts 354°
2026-05-06 00:17 45.10390 12.14677 33970 ft 474 kts 342°
2026-05-06 00:17 45.16983 12.13550 33970 ft 479 kts 345°
2026-05-06 00:18 45.23617 12.12565 33957 ft 479 kts 345°
2026-05-06 00:18 45.30258 12.11592 33965 ft 479 kts 345°
2026-05-06 00:19 45.36893 12.10616 33967 ft 479 kts 345°
2026-05-06 00:19 45.43534 12.09632 33992 ft 480 kts 345°
2026-05-06 00:20 45.50154 12.08662 33981 ft 481 kts 345°
2026-05-06 00:20 45.56810 12.07688 33996 ft 480 kts 345°
2026-05-06 00:21 45.63461 12.06711 33995 ft 480 kts 345°
2026-05-06 00:21 45.70116 12.05733 33995 ft 480 kts 345°
2026-05-06 00:22 45.76763 12.04752 33982 ft 480 kts 345°
2026-05-06 00:22 45.83413 12.03759 33987 ft 480 kts 345°
2026-05-06 00:23 45.90057 12.02769 33988 ft 480 kts 345°
2026-05-06 00:23 45.96696 12.01773 33991 ft 479 kts 345°
2026-05-06 00:24 46.03332 12.00759 34003 ft 479 kts 345°
2026-05-06 00:24 46.09968 11.99742 33993 ft 480 kts 345°
2026-05-06 00:25 46.16626 11.98712 34003 ft 482 kts 345°
2026-05-06 00:25 46.23302 11.97684 33990 ft 482 kts 345°
2026-05-06 00:26 46.29967 11.96669 33993 ft 482 kts 345°
2026-05-06 00:26 46.36635 11.95637 34003 ft 482 kts 346°
2026-05-06 00:27 46.43301 11.94570 33979 ft 482 kts 345°
2026-05-06 00:27 46.49930 11.93513 33992 ft 482 kts 345°
2026-05-06 00:28 46.56597 11.92458 33983 ft 481 kts 345°
2026-05-06 00:28 46.63264 11.91388 33972 ft 482 kts 345°
2026-05-06 00:29 46.69942 11.90306 33967 ft 482 kts 345°
2026-05-06 00:29 46.76613 11.89216 33976 ft 481 kts 346°
2026-05-06 00:30 46.83279 11.88125 33961 ft 483 kts 345°
2026-05-06 00:30 46.89917 11.87042 33945 ft 482 kts 345°
2026-05-06 00:31 46.96600 11.85955 33931 ft 483 kts 346°
2026-05-06 00:31 47.03274 11.84840 33930 ft 483 kts 345°
2026-05-06 00:32 47.09952 11.83705 33926 ft 483 kts 345°
2026-05-06 00:32 47.16622 11.82563 33921 ft 483 kts 345°
2026-05-06 00:33 47.23277 11.81419 33908 ft 481 kts 345°
2026-05-06 00:33 47.29931 11.80256 33895 ft 481 kts 345°
2026-05-06 00:34 47.36587 11.79091 33891 ft 482 kts 345°
2026-05-06 00:34 47.43259 11.77918 33884 ft 482 kts 346°
2026-05-06 00:35 47.49921 11.76694 33884 ft 482 kts 345°
2026-05-06 00:35 47.56577 11.75447 33898 ft 483 kts 346°
2026-05-06 00:36 47.63238 11.74139 33888 ft 482 kts 346°
2026-05-06 00:36 47.69851 11.72765 33876 ft 478 kts 345°
2026-05-06 00:37 47.76468 11.71377 33883 ft 480 kts 345°
2026-05-06 00:37 47.83091 11.69985 33882 ft 480 kts 345°
2026-05-06 00:38 47.89673 11.68528 33878 ft 479 kts 346°
2026-05-06 00:38 47.96276 11.66990 33876 ft 479 kts 345°
2026-05-06 00:39 48.02812 11.65459 33873 ft 478 kts 345°
2026-05-06 00:39 48.09388 11.63900 33877 ft 478 kts 346°
2026-05-06 00:40 48.16003 11.62275 33875 ft 478 kts 345°
2026-05-06 00:40 48.22539 11.60657 33887 ft 479 kts 345°
2026-05-06 00:41 48.29115 11.59029 33878 ft 479 kts 345°
2026-05-06 00:41 48.35695 11.57399 33870 ft 479 kts 345°
2026-05-06 00:42 48.42274 11.55768 33869 ft 479 kts 345°
2026-05-06 00:42 48.48868 11.54130 33865 ft 480 kts 345°
2026-05-06 00:43 48.55457 11.52464 33851 ft 481 kts 345°
2026-05-06 00:43 48.62066 11.50761 33845 ft 481 kts 345°
2026-05-06 00:44 48.68667 11.49057 33846 ft 481 kts 345°
2026-05-06 00:44 48.75227 11.47353 33856 ft 482 kts 346°
2026-05-06 00:45 48.81851 11.45591 33846 ft 483 kts 345°
2026-05-06 00:45 48.88478 11.43815 33857 ft 484 kts 346°
2026-05-06 00:46 48.95114 11.41990 33846 ft 484 kts 345°